• In Switzerland
  • List of Countries
  • For 7 days
  • Water Temperature
  • Satellite Maps
  • Weather Map
  • Weather Widgets
  • user-avatar
    Login

    Hourly Weather Gornoe

    Today, 24 September, Monday

    Time Temperature Precipitation Wind Pressure Humidity
    00:00 +13°C° 0 mm 2 mps 736 mmHg 96%
    01:00 +13°C° 0 mm 2 mps 736 mmHg 96%
    02:00 +13°C° 0 mm 2 mps 736 mmHg 96%
    03:00 +13°C° 0 mm 2 mps 736 mmHg 96%
    04:00 +12°C° 0 mm 1 mps 736 mmHg 97%
    05:00 +12°C° 0.1 mm 2 mps 736 mmHg 97%
    06:00 +12°C° 0.1 mm 2 mps 736 mmHg 97%
    07:00 +11°C° 0.1 mm 3 mps 736 mmHg 97%
    08:00 +13°C° 0 mm 3 mps 736 mmHg 92%
    09:00 +16°C° 0 mm 3 mps 736 mmHg 87%
    10:00 +17°C° 0 mm 4 mps 736 mmHg 82%
    11:00 +18°C° 0.1 mm 4 mps 736 mmHg 77%
    12:00 +20°C° 0.1 mm 4 mps 736 mmHg 72%
    13:00 +21°C° 0.1 mm 4 mps 736 mmHg 68%
    14:00 +20°C° 0.3 mm 4 mps 735 mmHg 69%
    15:00 +20°C° 0.3 mm 3 mps 735 mmHg 71%
    16:00 +20°C° 0.3 mm 3 mps 735 mmHg 72%
    17:00 +18°C° 0.2 mm 3 mps 735 mmHg 78%
    18:00 +17°C° 0.2 mm 3 mps 735 mmHg 85%
    19:00 +15°C° 0.2 mm 2 mps 735 mmHg 91%
    20:00 +15°C° 0 mm 2 mps 735 mmHg 91%
    21:00 +14°C° 0 mm 2 mps 735 mmHg 92%
    22:00 +14°C° 0 mm 2 mps 735 mmHg 92%
    23:00 +13°C° 0 mm 2 mps 735 mmHg 92%

    Tomorrow, 25 September, Tuesday

    Time Temperature Precipitation Wind Pressure Humidity
    00:00 +13°C° 0 mm 2 mps 735 mmHg 92%
    01:00 +12°C° 0 mm 3 mps 735 mmHg 91%
    02:00 +11°C° 0 mm 3 mps 735 mmHg 90%
    03:00 +11°C° 0 mm 3 mps 735 mmHg 90%
    04:00 +11°C° 0 mm 3 mps 735 mmHg 89%
    05:00 +11°C° 0 mm 3 mps 735 mmHg 87%
    06:00 +11°C° 0 mm 3 mps 735 mmHg 85%
    07:00 +11°C° 0 mm 3 mps 735 mmHg 83%
    08:00 +13°C° 0 mm 4 mps 735 mmHg 75%
    09:00 +15°C° 0 mm 5 mps 735 mmHg 66%
    10:00 +16°C° 0 mm 5 mps 735 mmHg 58%
    11:00 +17°C° 0 mm 6 mps 735 mmHg 54%
    12:00 +19°C° 0 mm 6 mps 735 mmHg 51%
    13:00 +20°C° 0 mm 6 mps 735 mmHg 48%
    14:00 +20°C° 0 mm 5 mps 735 mmHg 50%
    15:00 +20°C° 0 mm 5 mps 735 mmHg 52%
    16:00 +20°C° 0 mm 4 mps 735 mmHg 54%
    17:00 +18°C° 0 mm 4 mps 735 mmHg 58%
    18:00 +17°C° 0 mm 4 mps 735 mmHg 62%
    19:00 +14°C° 0 mm 4 mps 734 mmHg 65%
    20:00 +14°C° 0 mm 4 mps 735 mmHg 66%
    21:00 +14°C° 0 mm 4 mps 735 mmHg 67%
    22:00 +14°C° 0 mm 4 mps 735 mmHg 67%
    23:00 +13°C° 0 mm 4 mps 735 mmHg 68%

    Day after tomorrow, 26 September, Wednesday

    Time Temperature Precipitation Wind Pressure Humidity
    00:00 +13°C° 0 mm 4 mps 735 mmHg 70%
    01:00 +12°C° 0 mm 4 mps 735 mmHg 71%
    02:00 +12°C° 0 mm 4 mps 735 mmHg 70%
    03:00 +12°C° 0 mm 4 mps 735 mmHg 70%
    04:00 +12°C° 0 mm 4 mps 735 mmHg 69%
    05:00 +12°C° 0.1 mm 4 mps 735 mmHg 70%
    06:00 +12°C° 0.1 mm 4 mps 735 mmHg 71%
    07:00 +12°C° 0.1 mm 4 mps 735 mmHg 71%
    08:00 +13°C° 0 mm 5 mps 735 mmHg 68%
    09:00 +14°C° 0 mm 5 mps 735 mmHg 65%
    10:00 +15°C° 0 mm 6 mps 736 mmHg 61%
    11:00 +15°C° 0 mm 6 mps 736 mmHg 60%
    12:00 +16°C° 0 mm 6 mps 736 mmHg 59%
    13:00 +16°C° 0 mm 6 mps 736 mmHg 57%
    14:00 +16°C° 0.1 mm 5 mps 736 mmHg 61%
    15:00 +15°C° 0.1 mm 4 mps 736 mmHg 65%
    16:00 +14°C° 0.1 mm 3 mps 736 mmHg 70%
    17:00 +13°C° 0.4 mm 3 mps 737 mmHg 77%
    18:00 +13°C° 0.4 mm 2 mps 737 mmHg 84%
    19:00 +10°C° 0.4 mm 2 mps 737 mmHg 91%
    20:00 +10°C° 0.1 mm 2 mps 737 mmHg 92%
    21:00 +10°C° 0.1 mm 2 mps 737 mmHg 92%
    22:00 +9°C° 0.1 mm 2 mps 737 mmHg 92%
    23:00 +9°C° 0.3 mm 2 mps 737 mmHg 93%

    27 September, Thursday

    Time Temperature Precipitation Wind Pressure Humidity
    00:00 +9°C° 0.3 mm 2 mps 737 mmHg 93%
    01:00 +8°C° 0.3 mm 2 mps 737 mmHg 94%
    02:00 +8°C° 0.4 mm 2 mps 737 mmHg 94%
    03:00 +8°C° 0.4 mm 2 mps 737 mmHg 94%
    04:00 +8°C° 0.4 mm 2 mps 736 mmHg 95%
    05:00 +8°C° 0.3 mm 2 mps 736 mmHg 94%
    06:00 +7°C° 0.3 mm 3 mps 736 mmHg 94%
    07:00 +7°C° 0.3 mm 3 mps 736 mmHg 93%
    08:00 +8°C° 0.1 mm 3 mps 736 mmHg 89%
    09:00 +7°C° 0.1 mm 4 mps 736 mmHg 84%
    10:00 +8°C° 0.1 mm 4 mps 736 mmHg 80%
    11:00 +8°C° 0.1 mm 4 mps 736 mmHg 76%
    12:00 +8°C° 0.1 mm 5 mps 735 mmHg 73%
    13:00 +9°C° 0.1 mm 5 mps 735 mmHg 69%
    14:00 +8°C° 0 mm 4 mps 735 mmHg 71%
    15:00 +8°C° 0 mm 4 mps 734 mmHg 72%
    16:00 +8°C° 0 mm 4 mps 734 mmHg 74%
    17:00 +7°C° 0.1 mm 4 mps 734 mmHg 76%
    18:00 +6°C° 0.1 mm 4 mps 734 mmHg 79%
    19:00 +5°C° 0.1 mm 4 mps 733 mmHg 81%
    20:00 +5°C° 0 mm 4 mps 733 mmHg 79%
    21:00 +5°C° 0 mm 4 mps 732 mmHg 76%
    22:00 +5°C° 0 mm 4 mps 732 mmHg 74%
    23:00 +5°C° 0 mm 5 mps 731 mmHg 73%

    28 September, Friday

    Time Temperature Precipitation Wind Pressure Humidity
    00:00 +3°C° 0 mm 5 mps 731 mmHg 73%
    01:00 +3°C° 0 mm 5 mps 730 mmHg 72%
    02:00 +3°C° 0.4 mm 6 mps 729 mmHg 76%
    03:00 +3°C° 0.4 mm 6 mps 729 mmHg 79%
    04:00 +3°C° 0.4 mm 6 mps 728 mmHg 83%
    05:00 +3°C° 0.8 mm 6 mps 728 mmHg 85%
    06:00 +3°C° 0.8 mm 6 mps 727 mmHg 87%
    07:00 +3°C° 0.8 mm 6 mps 727 mmHg 89%
    08:00 +3°C° 0.5 mm 5 mps 727 mmHg 89%
    09:00 +3°C° 0.5 mm 5 mps 727 mmHg 89%
    10:00 +5°C° 0.5 mm 5 mps 727 mmHg 88%
    11:00 +5°C° 0.6 mm 5 mps 727 mmHg 84%
    12:00 +5°C° 0.6 mm 6 mps 727 mmHg 81%
    13:00 +7°C° 0.6 mm 6 mps 728 mmHg 77%
    14:00 +7°C° 0.4 mm 6 mps 728 mmHg 75%
    15:00 +7°C° 0.4 mm 5 mps 728 mmHg 73%
    16:00 +7°C° 0.4 mm 5 mps 729 mmHg 72%
    17:00 +6°C° 0 mm 4 mps 729 mmHg 76%
    18:00 +5°C° 0 mm 3 mps 729 mmHg 80%
    19:00 +4°C° 0 mm 3 mps 729 mmHg 84%
    20:00 +4°C° 0 mm 3 mps 729 mmHg 85%
    21:00 +4°C° 0 mm 3 mps 729 mmHg 86%
    22:00 +4°C° 0 mm 3 mps 729 mmHg 87%
    23:00 +4°C° 0.5 mm 4 mps 728 mmHg 89%

    29 September, Saturday

    Time Temperature Precipitation Wind Pressure Humidity
    00:00 +4°C° 0.5 mm 4 mps 727 mmHg 91%
    01:00 +5°C° 0.5 mm 5 mps 726 mmHg 93%
    02:00 +6°C° 1.7 mm 5 mps 725 mmHg 93%
    03:00 +7°C° 1.7 mm 6 mps 724 mmHg 93%
    04:00 +8°C° 1.7 mm 7 mps 723 mmHg 93%
    05:00 +6°C° 0.6 mm 7 mps 723 mmHg 90%
    06:00 +6°C° 0.6 mm 8 mps 723 mmHg 88%
    07:00 +5°C° 0.6 mm 8 mps 723 mmHg 85%
    08:00 +5°C° 0.1 mm 8 mps 724 mmHg 84%
    09:00 +5°C° 0.1 mm 8 mps 726 mmHg 83%
    10:00 +4°C° 0.1 mm 8 mps 727 mmHg 82%
    11:00 +4°C° 0.1 mm 8 mps 728 mmHg 79%
    12:00 +5°C° 0.1 mm 8 mps 730 mmHg 76%
    13:00 +5°C° 0.1 mm 7 mps 731 mmHg 73%
    14:00 +5°C° 0 mm 6 mps 732 mmHg 71%
    15:00 +5°C° 0 mm 6 mps 733 mmHg 69%
    16:00 +6°C° 0 mm 5 mps 734 mmHg 67%
    17:00 +5°C° 0 mm 4 mps 735 mmHg 72%
    18:00 +4°C° 0 mm 3 mps 735 mmHg 76%
    19:00 +4°C° 0 mm 2 mps 736 mmHg 81%
    20:00 +4°C° 0 mm 2 mps 736 mmHg 83%
    21:00 +3°C° 0 mm 2 mps 737 mmHg 85%
    22:00 +2°C° 0 mm 2 mps 737 mmHg 87%
    23:00 +3°C° 0 mm 1 mps 737 mmHg 88%
    Show more